Total_Precipitation_Accumulation
1.56 1.53 1.44 1.38 1.37 1.33 1.28 1.25 1.21 1.14 1.02 0.91 0.81 0.69 0.64 0.56 0.47 0.39 0.32 0.31 0.31 0.42 0.70 1.03 1.28 1.54 1.77 1.88 1.95 1.85 1.79 1.67 1.42 1.24 1.22 1.31 1.37 1.43 1.42 1.47 1.46 1.37 1.35
1.54 1.52 1.50 1.46 1.42 1.39 1.33 1.28 1.22 1.18 1.07 0.96 0.85 0.75 0.69 0.64 0.57 0.49 0.40 0.37 0.36 0.39 0.56 0.80 1.07 1.45 1.76 1.92 2.05 2.12 1.98 1.94 1.81 1.51 1.34 1.31 1.35 1.41 1.43 1.49 1.55 1.53 1.45
1.52 1.51 1.51 1.48 1.40 1.36 1.36 1.35 1.35 1.34 1.25 1.11 0.98 0.87 0.76 0.68 0.61 0.54 0.48 0.45 0.42 0.43 0.49 0.64 0.80 1.11 1.52 1.86 2.02 2.21 2.22 2.08 2.11 1.99 1.73 1.52 1.46 1.44 1.47 1.50 1.53 1.60 1.56
1.58 1.61 1.59 1.52 1.47 1.47 1.40 1.33 1.30 1.29 1.25 1.17 1.08 0.99 0.87 0.76 0.68 0.60 0.55 0.49 0.49 0.47 0.47 0.53 0.63 0.82 1.21 1.65 2.05 2.29 2.62 2.41 2.26 2.32 2.28 1.96 1.69 1.59 1.60 1.64 1.66 1.73 1.76
1.61 1.64 1.65 1.59 1.54 1.59 1.56 1.43 1.32 1.21 1.14 1.08 1.01 0.98 0.91 0.87 0.87 0.83 0.74 0.62 0.54 0.57 0.58 0.56 0.60 0.65 0.87 1.26 1.71 2.15 2.68 2.98 2.75 2.63 2.67 2.55 2.18 1.90 1.80 1.81 1.87 1.93 2.01
1.71 1.66 1.63 1.57 1.55 1.55 1.56 1.52 1.43 1.31 1.17 1.09 1.04 0.97 0.87 0.81 0.80 0.76 0.72 0.66 0.56 0.53 0.61 0.64 0.63 0.60 0.67 0.87 1.24 1.76 2.30 2.87 3.14 3.02 2.96 3.02 2.85 2.51 2.26 2.15 2.12 2.19 2.26
1.85 1.79 1.73 1.69 1.63 1.54 1.43 1.43 1.45 1.46 1.39 1.30 1.31 1.19 0.99 0.85 0.76 0.69 0.66 0.63 0.56 0.51 0.52 0.61 0.67 0.64 0.59 0.66 0.81 1.14 1.71 2.48 3.14 3.40 3.33 3.23 3.23 3.03 2.74 2.51 2.36 2.39 2.50
2.01 1.91 1.79 1.74 1.71 1.64 1.54 1.43 1.43 1.48 1.43 1.42 1.45 1.48 1.31 1.10 0.87 0.67 0.61 0.59 0.56 0.56 0.56 0.55 0.62 0.68 0.65 0.59 0.56 0.71 1.03 1.73 2.59 3.30 3.64 3.67 3.62 3.54 3.24 2.93 2.70 2.66 2.75
1.92 1.84 1.74 1.68 1.69 1.69 1.63 1.52 1.43 1.41 1.40 1.32 1.30 1.56 1.55 1.21 0.86 0.69 0.62 0.60 0.58 0.59 0.58 0.57 0.58 0.63 0.68 0.67 0.61 0.64 0.75 1.13 1.86 2.76 3.42 3.78 3.95 4.09 3.95 3.47 3.16 3.03 3.05
1.79 1.75 1.74 1.67 1.58 1.55 1.49 1.45 1.41 1.36 1.35 1.36 1.31 1.27 1.29 1.19 1.12 0.87 0.64 0.60 0.61 0.64 0.65 0.65 0.64 0.66 0.71 0.76 0.76 0.78 0.80 0.91 1.37 2.04 2.85 3.56 4.01 4.37 4.61 4.19 3.66 3.41 3.33
1.84 1.79 1.76 1.75 1.66 1.56 1.47 1.43 1.43 1.41 1.37 1.32 1.27 1.18 1.12 1.04 1.02 1.09 0.84 0.65 0.65 0.62 0.63 0.68 0.69 0.71 0.74 0.80 0.83 0.84 0.92 0.93 1.18 1.62 2.22 3.08 3.82 4.47 5.01 4.86 4.14 3.63 3.44
1.84 1.73 1.70 1.70 1.65 1.54 1.43 1.38 1.39 1.42 1.40 1.33 1.23 1.17 1.17 1.13 1.01 1.06 0.98 0.75 0.71 0.66 0.65 0.69 0.74 0.74 0.74 0.78 0.81 0.93 0.96 1.00 1.10 1.34 1.67 2.27 3.08 3.83 4.69 5.05 4.52 3.87 3.52
1.77 1.67 1.57 1.52 1.48 1.45 1.43 1.38 1.35 1.33 1.34 1.39 1.34 1.22 1.15 1.08 1.03 1.09 1.16 1.02 0.90 0.76 0.73 0.74 0.74 0.79 0.83 0.85 0.88 0.96 0.93 1.01 1.12 1.25 1.40 1.63 2.15 2.95 3.86 4.85 5.11 4.43 3.85
1.63 1.59 1.57 1.48 1.37 1.31 1.34 1.38 1.36 1.31 1.31 1.36 1.32 1.26 1.20 1.08 1.09 1.18 1.27 1.39 1.34 1.01 0.86 0.78 0.73 0.76 0.84 0.91 0.96 1.03 0.90 1.03 1.13 1.23 1.32 1.41 1.58 2.09 2.95 4.00 5.03 5.12 4.45
1.62 1.63 1.59 1.56 1.47 1.38 1.32 1.32 1.32 1.28 1.30 1.30 1.30 1.28 1.28 1.18 1.14 1.16 1.22 1.41 1.73 1.54 0.99 0.74 0.72 0.76 0.83 0.93 1.05 1.01 0.92 1.01 1.09 1.21 1.34 1.41 1.48 1.71 2.13 2.81 3.76 4.78 5.03
1.52 1.64 1.66 1.60 1.59 1.55 1.47 1.38 1.31 1.27 1.33 1.34 1.36 1.39 1.37 1.34 1.33 1.28 1.28 1.34 1.52 1.68 1.32 0.74 0.66 0.72 0.87 0.98 1.14 1.13 1.12 1.22 1.18 1.24 1.32 1.38 1.41 1.52 1.75 2.14 2.76 3.69 4.64
1.37 1.49 1.58 1.59 1.59 1.60 1.56 1.51 1.41 1.36 1.37 1.37 1.43 1.49 1.44 1.41 1.50 1.44 1.37 1.34 1.38 1.52 1.54 0.90 0.68 0.72 0.96 1.15 1.20 1.24 1.29 1.24 1.18 1.27 1.32 1.37 1.40 1.47 1.65 1.88 2.22 2.81 3.71
1.37 1.41 1.54 1.67 1.65 1.62 1.59 1.58 1.53 1.52 1.55 1.50 1.43 1.45 1.47 1.47 1.52 1.51 1.51 1.43 1.34 1.32 1.43 1.20 0.86 0.85 1.02 1.21 1.27 1.31 1.38 1.35 1.28 1.36 1.40 1.47 1.53 1.60 1.71 1.83 2.02 2.30 2.92
1.51 1.46 1.51 1.64 1.68 1.68 1.64 1.57 1.57 1.60 1.65 1.72 1.68 1.65 1.58 1.57 1.60 1.54 1.56 1.51 1.41 1.32 1.33 1.33 1.08 0.94 1.03 1.16 1.30 1.38 1.42 1.41 1.40 1.47 1.45 1.48 1.60 1.71 1.78 1.83 1.92 2.09 2.34
1.56 1.54 1.50 1.54 1.64 1.73 1.80 1.80 1.82 1.77 1.75 1.78 1.80 1.82 1.77 1.76 1.70 1.66 1.69 1.64 1.60 1.61 1.57 1.56 1.37 1.16 1.11 1.14 1.34 1.54 1.64 1.50 1.47 1.45 1.49 1.49 1.61 1.70 1.77 1.75 1.68 1.78 2.01
1.60 1.56 1.54 1.48 1.53 1.79 2.14 2.11 2.01 1.93 1.80 1.72 1.66 1.67 1.75 1.93 1.98 2.03 2.06 1.96 1.94 2.06 2.01 1.92 1.69 1.46 1.30 1.33 1.45 1.54 1.76 1.72 1.62 1.53 1.56 1.49 1.51 1.49 1.53 1.63 1.69 1.77 1.93
1.67 1.59 1.54 1.49 1.52 1.74 2.29 2.35 1.99 1.74 1.61 1.60 1.58 1.49 1.49 1.71 1.82 1.97 2.12 2.12 2.19 2.36 2.43 2.32 2.02 1.73 1.42 1.35 1.46 1.71 1.93 2.13 2.05 1.62 1.64 1.69 1.66 1.69 1.58 1.56 1.73 1.79 1.89
1.71 1.65 1.55 1.47 1.43 1.54 2.02 2.11 1.89 1.55 1.41 1.40 1.43 1.41 1.37 1.40 1.53 1.48 1.70 1.82 1.86 2.05 2.30 2.39 2.34 1.87 1.57 1.44 1.74 1.97 2.02 2.15 2.03 1.76 1.87 2.11 1.91 1.87 1.73 1.71 1.75 1.65 1.74
1.78 1.68 1.58 1.49 1.45 1.42 1.81 1.98 1.83 1.43 1.28 1.23 1.22 1.19 1.20 1.23 1.34 1.51 1.61 1.62 1.53 1.62 1.90 2.10 2.27 2.07 1.85 1.81 2.09 2.41 2.53 2.55 2.31 2.06 2.03 2.42 2.19 2.05 1.95 1.84 1.78 1.60 1.63
1.72 1.67 1.58 1.42 1.36 1.37 1.62 1.92 1.89 1.48 1.31 1.16 1.11 1.10 1.07 1.06 1.39 1.66 1.61 1.53 1.40 1.39 1.58 1.89 2.12 2.22 2.31 2.45 2.62 2.93 3.13 3.11 2.88 2.43 2.17 2.38 2.40 2.31 2.17 2.05 1.87 1.69 1.57
1.63 1.62 1.58 1.42 1.31 1.28 1.49 1.86 2.04 1.55 1.35 1.21 1.11 1.07 1.19 1.24 1.50 1.61 1.51 1.58 1.62 1.44 1.36 1.45 1.55 1.68 1.77 1.95 2.35 2.64 2.92 3.11 3.02 2.89 2.36 2.34 2.47 2.54 2.80 2.34 1.91 1.59 1.46